IRIDIUM 54

Last updated on Wed Nov 29 2017 00:19:02 GMT+0000 (Coordinated Universal Time)

1 25171U 98010C 17332.39263006 .00000152 00000-0 47309-4 0 9994 2 25171 86.3953 281.7438 0002141 82.7467 277.3972 14.34218977 35468

Satellite not in orbit

IRIDIUM 54